• In Netherlands
  • List of Countries
  • For 7 days
  • Water Temperature
  • Satellite Maps
  • Weather Map
  • Weather Widgets
  • user-avatar
    Login

    Hourly Weather Blagoevgrad

    Today, 17 November, Friday

    Time Temperature Precipitation Wind Pressure Humidity
    00:00 +10°C° 0 mm 1 mps 723 mmHg 90%
    01:00 +10°C° 0 mm 1 mps 723 mmHg 90%
    02:00 +9°C° 0 mm 1 mps 723 mmHg 93%
    03:00 +9°C° 0.1 mm 1 mps 722 mmHg 92%
    04:00 +9°C° 0.1 mm 1 mps 722 mmHg 91%
    05:00 +8°C° 0.1 mm 2 mps 722 mmHg 90%
    06:00 +8°C° 0.4 mm 2 mps 722 mmHg 89%
    07:00 +8°C° 0.4 mm 2 mps 722 mmHg 89%
    08:00 +10°C° 0 mm 1 mps 722 mmHg 87%
    09:00 +10°C° 0.4 mm 1 mps 722 mmHg 83%
    10:00 +10°C° 0.4 mm 2 mps 722 mmHg 80%
    11:00 +10°C° 0.4 mm 2 mps 722 mmHg 77%
    12:00 +12°C° 0.1 mm 2 mps 722 mmHg 75%
    13:00 +12°C° 0.1 mm 2 mps 721 mmHg 73%
    14:00 +13°C° 0 mm 2 mps 721 mmHg 73%
    15:00 +12°C° 0.2 mm 2 mps 721 mmHg 77%
    16:00 +12°C° 0.2 mm 2 mps 721 mmHg 80%
    17:00 +11°C° 0.2 mm 1 mps 721 mmHg 84%
    18:00 +11°C° 0.2 mm 1 mps 721 mmHg 85%
    19:00 +10°C° 0.2 mm 1 mps 721 mmHg 87%
    20:00 +10°C° 0.2 mm 1 mps 721 mmHg 88%
    21:00 +10°C° 0.2 mm 1 mps 721 mmHg 88%
    22:00 +10°C° 0.2 mm 1 mps 721 mmHg 89%
    23:00 +10°C° 0.2 mm 1 mps 720 mmHg 89%

    Tomorrow, 18 November, Saturday

    Time Temperature Precipitation Wind Pressure Humidity
    00:00 +10°C° 0.1 mm 1 mps 720 mmHg 89%
    01:00 +9°C° 0.1 mm 1 mps 720 mmHg 89%
    02:00 +9°C° 0.1 mm 1 mps 720 mmHg 90%
    03:00 +9°C° 0.1 mm 1 mps 720 mmHg 90%
    04:00 +9°C° 0.1 mm 1 mps 720 mmHg 90%
    05:00 +9°C° 0.1 mm 1 mps 719 mmHg 90%
    06:00 +9°C° 0.2 mm 1 mps 719 mmHg 89%
    07:00 +9°C° 0.2 mm 1 mps 719 mmHg 89%
    08:00 +9°C° 0.2 mm 1 mps 719 mmHg 88%
    09:00 +11°C° 0.1 mm 1 mps 719 mmHg 83%
    10:00 +12°C° 0.1 mm 1 mps 719 mmHg 79%
    11:00 +13°C° 0.1 mm 1 mps 719 mmHg 74%
    12:00 +13°C° 0 mm 1 mps 719 mmHg 72%
    13:00 +13°C° 0 mm 1 mps 719 mmHg 70%
    14:00 +14°C° 0 mm 1 mps 718 mmHg 68%
    15:00 +13°C° 0 mm 1 mps 718 mmHg 72%
    16:00 +12°C° 0 mm 1 mps 718 mmHg 76%
    17:00 +12°C° 0 mm 1 mps 718 mmHg 79%
    18:00 +11°C° 0 mm 1 mps 718 mmHg 82%
    19:00 +10°C° 0 mm 1 mps 718 mmHg 85%
    20:00 +10°C° 0 mm 1 mps 718 mmHg 88%
    21:00 +9°C° 0 mm 1 mps 718 mmHg 89%
    22:00 +9°C° 0 mm 1 mps 718 mmHg 89%
    23:00 +9°C° 0 mm 1 mps 718 mmHg 90%

    Day after tomorrow, 19 November, Sunday

    Time Temperature Precipitation Wind Pressure Humidity
    00:00 +8°C° 0 mm 1 mps 718 mmHg 91%
    01:00 +8°C° 0 mm 1 mps 718 mmHg 91%
    02:00 +8°C° 0 mm 1 mps 718 mmHg 91%
    03:00 +8°C° 0 mm 1 mps 718 mmHg 91%
    04:00 +7°C° 0 mm 1 mps 717 mmHg 91%
    05:00 +7°C° 0 mm 1 mps 717 mmHg 91%
    06:00 +7°C° 0 mm 1 mps 717 mmHg 90%
    07:00 +7°C° 0 mm 1 mps 717 mmHg 89%
    08:00 +7°C° 0 mm 1 mps 717 mmHg 88%
    09:00 +7°C° 0 mm 2 mps 718 mmHg 81%
    10:00 +9°C° 0 mm 2 mps 718 mmHg 74%
    11:00 +10°C° 0 mm 2 mps 718 mmHg 66%
    12:00 +10°C° 0 mm 2 mps 717 mmHg 64%
    13:00 +10°C° 0 mm 2 mps 717 mmHg 62%
    14:00 +12°C° 0 mm 2 mps 717 mmHg 59%
    15:00 +10°C° 0 mm 2 mps 716 mmHg 62%
    16:00 +9°C° 0 mm 2 mps 716 mmHg 66%
    17:00 +9°C° 0 mm 1 mps 716 mmHg 69%
    18:00 +8°C° 0 mm 1 mps 716 mmHg 70%
    19:00 +8°C° 0 mm 1 mps 716 mmHg 71%
    20:00 +7°C° 0 mm 1 mps 717 mmHg 72%
    21:00 +7°C° 0 mm 1 mps 717 mmHg 72%
    22:00 +7°C° 0 mm 1 mps 717 mmHg 72%
    23:00 +7°C° 0 mm 1 mps 717 mmHg 72%

    20 November, Monday

    Time Temperature Precipitation Wind Pressure Humidity
    00:00 +7°C° 0 mm 1 mps 717 mmHg 72%
    01:00 +5°C° 0 mm 2 mps 717 mmHg 72%
    02:00 +5°C° 0 mm 2 mps 717 mmHg 72%
    03:00 +5°C° 0.2 mm 2 mps 717 mmHg 74%
    04:00 +5°C° 0.2 mm 2 mps 717 mmHg 75%
    05:00 +3°C° 0.2 mm 3 mps 718 mmHg 76%
    06:00 +3°C° 0.1 mm 3 mps 718 mmHg 78%
    07:00 +3°C° 0.1 mm 3 mps 718 mmHg 79%
    08:00 +2°C° 0.1 mm 3 mps 719 mmHg 80%
    09:00 +3°C° 0 mm 3 mps 719 mmHg 74%
    10:00 +4°C° 0 mm 4 mps 720 mmHg 69%
    11:00 +5°C° 0 mm 4 mps 720 mmHg 63%
    12:00 +5°C° 0 mm 4 mps 720 mmHg 62%
    13:00 +5°C° 0 mm 4 mps 720 mmHg 60%
    14:00 +5°C° 0 mm 5 mps 720 mmHg 59%
    15:00 +4°C° 0 mm 4 mps 720 mmHg 61%
    16:00 +3°C° 0 mm 4 mps 720 mmHg 64%
    17:00 +3°C° 0 mm 3 mps 721 mmHg 67%
    18:00 +2°C° 0 mm 3 mps 721 mmHg 70%
    19:00 +2°C° 0 mm 2 mps 721 mmHg 74%
    20:00 +1°C° 0 mm 2 mps 722 mmHg 78%
    21:00 +1°C° 0 mm 2 mps 722 mmHg 79%
    22:00 +1°C° 0 mm 2 mps 723 mmHg 79%
    23:00 +1°C° 0 mm 2 mps 723 mmHg 80%

    21 November, Tuesday

    Time Temperature Precipitation Wind Pressure Humidity
    00:00 +1°C° 0 mm 2 mps 723 mmHg 80%
    01:00 +1°C° 0 mm 2 mps 723 mmHg 81%
    02:00 +1°C° 0 mm 1 mps 723 mmHg 81%
    03:00 +1°C° 0 mm 1 mps 723 mmHg 80%
    04:00 +1°C° 0 mm 1 mps 723 mmHg 80%
    05:00 +1°C° 0 mm 1 mps 722 mmHg 79%
    06:00 +1°C° 0 mm 1 mps 723 mmHg 76%
    07:00 +2°C° 0 mm 1 mps 723 mmHg 73%
    08:00 +2°C° 0 mm 1 mps 723 mmHg 71%
    09:00 +4°C° 0 mm 1 mps 723 mmHg 63%
    10:00 +6°C° 0 mm 1 mps 723 mmHg 54%
    11:00 +9°C° 0 mm 1 mps 723 mmHg 46%
    12:00 +8°C° 0 mm 2 mps 722 mmHg 45%
    13:00 +9°C° 0 mm 2 mps 722 mmHg 44%
    14:00 +10°C° 0 mm 2 mps 721 mmHg 44%
    15:00 +9°C° 0 mm 1 mps 721 mmHg 50%
    16:00 +8°C° 0 mm 1 mps 721 mmHg 56%
    17:00 +7°C° 0 mm 1 mps 721 mmHg 62%
    18:00 +6°C° 0 mm 1 mps 721 mmHg 63%
    19:00 +6°C° 0 mm 1 mps 721 mmHg 65%
    20:00 +5°C° 0 mm 1 mps 722 mmHg 66%
    21:00 +5°C° 0 mm 1 mps 722 mmHg 65%
    22:00 +5°C° 0 mm 1 mps 722 mmHg 65%
    23:00 +5°C° 0 mm 1 mps 722 mmHg 65%

    22 November, Wednesday

    Time Temperature Precipitation Wind Pressure Humidity
    00:00 +5°C° 0 mm 1 mps 722 mmHg 64%
    01:00 +5°C° 0 mm 1 mps 722 mmHg 63%
    02:00 +5°C° 0 mm 1 mps 722 mmHg 63%
    03:00 +5°C° 0 mm 1 mps 722 mmHg 63%
    04:00 +5°C° 0 mm 1 mps 722 mmHg 63%
    05:00 +5°C° 0 mm 1 mps 722 mmHg 63%
    06:00 +5°C° 0 mm 1 mps 722 mmHg 63%
    07:00 +5°C° 0 mm 1 mps 722 mmHg 63%
    08:00 +5°C° 0 mm 1 mps 723 mmHg 63%
    09:00 +8°C° 0 mm 1 mps 723 mmHg 58%
    10:00 +10°C° 0 mm 1 mps 723 mmHg 53%
    11:00 +13°C° 0 mm 1 mps 723 mmHg 47%
    12:00 +13°C° 0 mm 1 mps 723 mmHg 47%
    13:00 +14°C° 0 mm 2 mps 723 mmHg 47%
    14:00 +15°C° 0 mm 2 mps 722 mmHg 47%
    15:00 +13°C° 0 mm 1 mps 722 mmHg 53%
    16:00 +11°C° 0 mm 1 mps 722 mmHg 59%
    17:00 +10°C° 0 mm 1 mps 722 mmHg 66%
    18:00 +9°C° 0 mm 1 mps 722 mmHg 67%
    19:00 +9°C° 0 mm 1 mps 723 mmHg 68%
    20:00 +8°C° 0 mm 1 mps 723 mmHg 69%
    21:00 +8°C° 0 mm 1 mps 723 mmHg 69%
    22:00 +8°C° 0 mm 1 mps 723 mmHg 69%
    23:00 +8°C° 0 mm 1 mps 723 mmHg 69%
    Show more